Regional Weather Roundup
Issued by NWS

Home | Current Version | Previous Version | Graphics & Text | Print | Product List | Glossary On
Versions: 1 2 3 4 5 6 7 8 9 10 11 12 13 14 15 16 17 18 19 20 21 22 23 24 25 26 27
000
ASUS45 KBOU 200606
RWRCO

WEATHER ROUNDUP FOR COLORADO
NATIONAL WEATHER SERVICE DENVER/BOULDER CO
1200 AM MDT SUN APR 20 2014

NOTE: "FAIR" INDICATES FEW OR NO CLOUDS BELOW 12000 FEET WITH NO
SIGNIFICANT WEATHER AND/OR OBSTRUCTIONS TO VISIBILITY.

COZ001>005-013-030-031-200700-
...NORTHWEST COLORADO...

CITY           SKY/WX    TMP DP  RH WIND       PRES   REMARKS
CRAIG          CLEAR     40  36  86 CALM      30.12S
HAYDEN         PTCLDY    43  36  75 E7        30.15S
MEEKER         CLEAR     44  38  79 NE6       30.14F
MOUNT WERNER   CLEAR     37  32  81 SE10      30.28S
STEAMBOAT SPGS PTCLDY    41  32  70 CALM      30.15R
WALDEN         CLEAR     34  32  93 E7        30.18S WCI  28
$$

COZ006>008-011-200700-
...WEST CENTRAL VALLEYS...

CITY           SKY/WX    TMP DP  RH WIND       PRES   REMARKS
GRAND JUNCTION PTCLDY    46  42  86 E3        30.07S
MONTROSE       PTCLDY    48  42  80 SE5       30.13S
EAGLE          CLOUDY    48  39  71 NE3       30.17R
RIFLE          CLEAR     48  36  63 SE5       30.11R
DELTA          PTCLDY    52  40  63 NE3       30.10S
NUCLA            N/A     45  37  76 E9        30.15S
$$

COZ017>023-064>068-200700-
...SOUTHWEST COLORADO...

CITY           SKY/WX    TMP DP  RH WIND       PRES   REMARKS
DURANGO        CLOUDY    46  35  65 CALM      30.12R
CORTEZ         MOCLDY    43  34  70 E5        30.11S
PAGOSA SPRINGS CLOUDY    40  33  77 CALM      30.16S
TELLURIDE      CLOUDY    39  34  81 E6        30.23S
WOLF CREEK PAS MOCLDY    30  28  93 SW9       30.32S WCI  22
$$

COZ009-010-012-014-032>034-037-058>063-200700-
...CENTRAL COLORADO...

CITY           SKY/WX    TMP DP  RH WIND       PRES   REMARKS
ASPEN          CLOUDY    43  34  70 SW6       30.17S
BUENA VISTA    LGT RAIN  44  40  83 CALM      30.20S
COPPER MTN     CLOUDY    34  28  80 W7        30.33S WCI  28
BERTHOUD PASS  MOCLDY    27  18  69 W17       30.35S WCI  14
COTTONWOOD PAS CLOUDY    41  36  81 CALM      30.26F
GUNNISON       MOCLDY    45  30  57 NW5       30.21S
KREMMLING      CLOUDY    43  36  75 CALM      30.19S
LEADVILLE      CLOUDY    32  31  96 CALM      30.25S
MONARCH PASS   SNOW      32  30  93 NW8       30.43S VSB 1/2 WCI  25
SALIDA         CLOUDY    48  40  74 S6        30.25S
SUNLIGHT       PTCLDY    36  34  93 CALM      30.31S
WILKERSON PASS LGT SNOW  32  32 100 SW3       30.33S
$$

COZ069>075-200700-
...SAN LUIS VALLEY/SANGRE DE CRISTO MOUNTAINS...

CITY           SKY/WX    TMP DP  RH WIND       PRES   REMARKS
ALAMOSA        CLOUDY    47  37  68 NE8       30.12R
LA VETA PASS   DRIZZLE   36  34  93 NE9       30.25S
SAGUACHE       CLOUDY    48  36  61 NW13      30.17S
$$

COZ035-036-038>040-200700-
...NORTHERN COLORADO FRONT RANGE...

CITY           SKY/WX    TMP DP  RH WIND       PRES   REMARKS
DENVER INTL AP CLOUDY    51  46  83 SW9       30.10F
DMNS CITY PARK   N/A     53  45  75 S7G13     30.10S
AURORA         MOCLDY    50  46  87 S5        30.11F
FRONT RANGE AP NOT AVBL
ERIE MUNI ARPT CLOUDY    50  47  90 CALM      30.08S
BOULDER MUN AP MOCLDY    50  45  81 SW10      30.08S
CENTENNIAL     CLOUDY    48  44  86 SW6       30.12F
BROOMFIELD     CLOUDY    50  45  81 SW7       30.11R
FORT COLLINS   MOCLDY    54  43  66 SW10      30.08S
LONGMONT       MOCLDY    50  46  86 S3        30.09F
$$

COZ041-046-047-076>085-087-088-200700-
...PIKES PEAK/PALMER DIVIDE AND SOUTHERN FOOTHILLS...

CITY           SKY/WX    TMP DP  RH WIND       PRES   REMARKS
COLO. SPRINGS  CLOUDY    51  41  68 NW12      30.12F
A. F. ACADEMY  CLOUDY    46  43  90 N6        30.14F
ELLICOTT       NOT AVBL
FALCON         CLOUDY    46  40  77 NW10      30.14F
FORT CARSON    CLOUDY    50  43  77 N10       30.09F
LIMON          MOCLDY    43  38  82 N10       30.07F
MONUMENT HILL  CLOUDY    41  37  87 W8        30.15F
TRINIDAD       CLOUDY    55  43  63 W10       30.07R
$$

COZ042>045-048>051-090-091-200700-
...NORTHEAST COLORADO...

CITY           SKY/WX    TMP DP  RH WIND       PRES   REMARKS
GREELEY ARPT   MOCLDY    54  45  71 SE7       30.06F
AKRON          PTCLDY    47  38  71 SW5       30.06F
BURLINGTON     MOCLDY    50  45  83 NE9       30.02S
WRAY           MOCLDY    51  43  73 CALM      30.02S
STERLING       PTCLDY    46  39  76 NW5       30.04F
HOLYOKE        MOCLDY    46  39  76 W5        30.03F
FORT MORGAN    PTCLDY    47  38  70 W3        30.07F
$$

COZ086-089-092>099-200700-
...SOUTHEAST COLORADO...

CITY           SKY/WX    TMP DP  RH WIND       PRES   REMARKS
PUEBLO         CLOUDY    59  38  45 N13       30.04F
LA JUNTA       CLOUDY    58  45  62 N16       29.95S
LAMAR          MOCLDY    58  43  57 S16       29.93S
SPRINGFIELD      N/A     55  46  71 S15       30.01S
$$



USA.gov is the U.S. government's official web portal to all federal, state and local government web resources and services.